Location: Reutlingen
(48.4911°N, 9.2587°E)
Time: 20:23:48
(UTC+01:00)

OTV 5 (USA 277) - Visible Passes

Search period start: 21 February 2018 00:00
Search period end: 03 March 2018 00:00
Orbit: 404 x 417 km, 43.0° (Epoch: 07 September)

Date Brightness Start Highest point End Pass type
(mag) Time Alt. Az. Time Alt. Az. Time Alt. Az.
21 Feb ? 05:58:37 10° S 05:59:44 11° SSE 06:00:52 10° SE visible
22 Feb ? 06:42:46 10° SW 06:45:26 23° SSE 06:48:07 10° ESE visible
23 Feb ? 05:52:17 11° SSW 05:54:32 19° SSE 05:56:57 10° ESE visible
24 Feb ? 05:03:42 15° SSE 05:03:42 15° SSE 05:05:38 10° ESE visible
24 Feb ? 06:37:27 10° SW 06:40:22 29° S 06:43:17 10° ESE visible
25 Feb ? 05:47:48 18° SSW 05:49:25 26° S 05:52:15 10° ESE visible
26 Feb ? 04:59:06 22° SSE 04:59:06 22° SSE 05:01:10 10° ESE visible
26 Feb ? 06:32:22 10° WSW 06:35:19 31° S 06:38:17 10° ESE visible
27 Feb ? 05:43:07 23° SW 05:44:22 31° S 05:47:19 10° ESE visible
28 Feb ? 04:54:23 25° SE 04:54:23 25° SE 04:56:20 10° ESE visible
28 Feb ? 06:27:27 10° WSW 06:30:17 26° S 06:33:05 10° SE visible
01 Mar ? 05:38:23 25° SW 05:39:20 29° S 05:42:15 10° SE visible
02 Mar ? 04:49:40 23° SE 04:49:40 23° SE 04:51:20 10° ESE visible
02 Mar ? 06:22:46 10° WSW 06:25:10 19° SSW 06:27:33 10° SSE visible
